| time (UTC) | temp C | wind direction | speed KPH | gust KPH | rain 1hr cm | rain 24hr cm | rain mn cm | humidity % | barometer mb |
| 20260509182705 | 32 | 301 | 4.8 | 4.8 | 0.00 | 0.13 | 0.13 | 61 | 1013.4 |
| 20260509182203 | 32 | 226 | 0.0 | 0.0 | 0.00 | 0.13 | 0.13 | 64 | 1013.4 |
| 20260509181700 | 32 | 192 | 1.6 | 1.6 | 0.00 | 0.13 | 0.13 | 61 | 1013.7 |
| 20260509181158 | 32 | 243 | 1.6 | 1.6 | 0.00 | 0.13 | 0.13 | 63 | 1013.7 |
| 20260509180654 | 31 | 262 | 0.0 | 1.6 | 0.00 | 0.13 | 0.13 | 64 | 1013.8 |
| 20260509180150 | 31 | 336 | 3.2 | 4.8 | 0.00 | 0.13 | 0.13 | 64 | 1013.9 |
| 20260509175646 | 31 | 257 | 0.0 | 0.0 | 0.00 | 0.13 | 0.13 | 65 | 1013.8 |
| 20260509175143 | 30 | 261 | 0.0 | 1.6 | 0.00 | 0.13 | 0.13 | 69 | 1014.0 |
| 20260509174639 | 30 | 197 | 0.0 | 0.0 | 0.00 | 0.13 | 0.13 | 65 | 1014.1 |
| 20260509174134 | 31 | 195 | 4.8 | 4.8 | 0.00 | 0.13 | 0.13 | 65 | 1014.1 |
| 20260509173630 | 31 | 223 | 3.2 | 3.2 | 0.00 | 0.13 | 0.13 | 66 | 1014.5 |
| 20260509173126 | 31 | 224 | 0.0 | 1.6 | 0.00 | 0.13 | 0.13 | 67 | 1014.6 |
| 20260509172623 | 30 | 224 | 3.2 | 3.2 | 0.00 | 0.13 | 0.13 | 67 | 1014.7 |
| 20260509172119 | 30 | 248 | 1.6 | 1.6 | 0.00 | 0.13 | 0.13 | 65 | 1014.3 |
| 20260509171615 | 30 | 315 | 0.0 | 0.0 | 0.00 | 0.13 | 0.13 | 68 | 1014.4 |
| 20260509171111 | 30 | 315 | 1.6 | 3.2 | 0.00 | 0.13 | 0.13 | 69 | 1014.4 |
| 20260509170608 | 31 | 316 | 0.0 | 1.6 | 0.00 | 0.13 | 0.13 | 67 | 1014.3 |
| 20260509170104 | 30 | 311 | 0.0 | 0.0 | 0.00 | 0.13 | 0.13 | 72 | 1014.6 |
| 20260509165602 | 30 | 311 | 1.6 | 1.6 | 0.00 | 0.13 | 0.13 | 69 | 1014.5 |
| 20260509165058 | 30 | 312 | 0.0 | 0.0 | 0.00 | 0.13 | 0.13 | 74 | 1014.3 |
| 20260509164554 | 29 | 312 | 0.0 | 0.0 | 0.00 | 0.13 | 0.13 | 75 | 1014.6 |
| 20260509164050 | 29 | 315 | 3.2 | 4.8 | 0.00 | 0.13 | 0.13 | 75 | 1014.5 |
| 20260509163548 | 28 | 314 | 0.0 | 1.6 | 0.00 | 0.13 | 0.13 | 76 | 1014.7 |
| 20260509163044 | 28 | 315 | 0.0 | 0.0 | 0.00 | 0.13 | 0.13 | 80 | 1014.6 |
| 20260509162541 | 28 | 316 | 0.0 | 0.0 | 0.00 | 0.13 | 0.13 | 81 | 1014.7 |
| 20260509162036 | 28 | 237 | 0.0 | 1.6 | 0.00 | 0.13 | 0.13 | 80 | 1014.7 |
| 20260509161533 | 28 | 259 | 1.6 | 3.2 | 0.00 | 0.13 | 0.13 | 80 | 1014.5 |
| 20260509161028 | 28 | 142 | 0.0 | 1.6 | 0.00 | 0.13 | 0.13 | 82 | 1014.6 |
| 20260509160524 | 27 | 269 | 1.6 | 1.6 | 0.00 | 0.13 | 0.13 | 82 | 1014.5 |
| 20260509160020 | 27 | 199 | 1.6 | 3.2 | 0.00 | 0.13 | 0.13 | 86 | 1014.6 |
| 20260509155516 | 26 | 162 | 6.4 | 9.7 | 0.00 | 0.13 | 0.13 | 86 | 1014.6 |
| 20260509155012 | 26 | 167 | 0.0 | 0.0 | 0.00 | 0.13 | 0.13 | 89 | 1014.6 |
| 20260509154508 | 25 | 160 | 4.8 | 8.0 | 0.00 | 0.13 | 0.13 | 91 | 1014.9 |
| 20260509154006 | 25 | 221 | 4.8 | 4.8 | 0.00 | 0.13 | 0.13 | 91 | 1014.8 |
| 20260509153503 | 25 | 170 | 6.4 | 9.7 | 0.00 | 0.13 | 0.13 | 91 | 1014.9 |
| 20260509153000 | 24 | 175 | 4.8 | 8.0 | 0.00 | 0.13 | 0.13 | 92 | 1014.7 |
| 20260509152455 | 24 | 171 | 8.0 | 9.7 | 0.00 | 0.13 | 0.13 | 93 | 1014.6 |
| 20260509151953 | 24 | 216 | 4.8 | 8.0 | 0.00 | 0.13 | 0.13 | 93 | 1014.9 |
| 20260509151449 | 24 | 177 | 3.2 | 8.0 | 0.00 | 0.13 | 0.13 | 94 | 1014.6 |
| 20260509150948 | 24 | 181 | 1.6 | 3.2 | 0.00 | 0.13 | 0.13 | 94 | 1014.5 |
| 20260509150444 | 24 | 162 | 4.8 | 8.0 | 0.00 | 0.13 | 0.13 | 94 | 1014.4 |
| 20260509145942 | 24 | 239 | 1.6 | 3.2 | 0.00 | 0.13 | 0.13 | 94 | 1014.4 |
| 20260509145437 | 23 | 211 | 1.6 | 3.2 | 0.00 | 0.13 | 0.13 | 95 | 1014.5 |
| 20260509144933 | 23 | 191 | 1.6 | 1.6 | 0.00 | 0.13 | 0.13 | 96 | 1014.4 |
| 20260509144430 | 23 | 156 | 3.2 | 4.8 | 0.00 | 0.13 | 0.13 | 96 | 1014.4 |
| 20260509143927 | 23 | 226 | 1.6 | 1.6 | 0.00 | 0.13 | 0.13 | 97 | 1014.5 |
| 20260509143424 | 23 | 185 | 3.2 | 3.2 | 0.00 | 0.13 | 0.13 | 97 | 1014.5 |
| 20260509142920 | 23 | 210 | 4.8 | 8.0 | 0.00 | 0.13 | 0.13 | 96 | 1014.0 |
| 20260509142417 | 23 | 207 | 8.0 | 9.7 | 0.00 | 0.13 | 0.13 | 95 | 1014.1 |
| 20260509141912 | 24 | 212 | 8.0 | 11.3 | 0.00 | 0.13 | 0.13 | 96 | 1013.9 |
| 20260509141410 | 24 | 164 | 6.4 | 8.0 | 0.00 | 0.13 | 0.13 | 96 | 1013.6 |
| 20260509140906 | 24 | 203 | 3.2 | 3.2 | 0.00 | 0.13 | 0.13 | 98 | 1013.9 |
| 20260509140403 | 23 | 193 | 3.2 | 3.2 | 0.00 | 0.13 | 0.13 | 99 | 1013.6 |
| 20260509135901 | 23 | 222 | 0.0 | 0.0 | 0.00 | 0.13 | 0.13 | 99 | 1013.5 |
| 20260509135358 | 23 | 191 | 4.8 | 8.0 | 0.00 | 0.13 | 0.13 | 99 | 1013.4 |
| 20260509134855 | 23 | 148 | 4.8 | 4.8 | 0.00 | 0.13 | 0.13 | 99 | 1013.6 |
| 20260509134353 | 23 | 145 | 4.8 | 8.0 | 0.00 | 0.13 | 0.13 | 99 | 1013.5 |
| 20260509133849 | 22 | 196 | 4.8 | 4.8 | 0.00 | 0.13 | 0.13 | 99 | 1013.6 |
| 20260509133346 | 22 | 199 | 4.8 | 4.8 | 0.00 | 0.13 | 0.13 | 99 | 1013.7 |
| 20260509132845 | 22 | 159 | 4.8 | 8.0 | 0.00 | 0.13 | 0.13 | 99 | 1013.7 |
| 20260509132343 | 22 | 203 | 0.0 | 1.6 | 0.00 | 0.13 | 0.13 | 99 | 1013.8 |
| 20260509131839 | 22 | 195 | 3.2 | 3.2 | 0.00 | 0.13 | 0.13 | 99 | 1014.2 |
| 20260509131336 | 22 | 195 | 3.2 | 3.2 | 0.00 | 0.13 | 0.13 | 99 | 1014.2 |
| 20260509130833 | 22 | 216 | 1.6 | 1.6 | 0.00 | 0.13 | 0.13 | 99 | 1014.5 |
| 20260509130328 | 22 | 217 | 0.0 | 0.0 | 0.00 | 0.13 | 0.13 | 99 | 1014.4 |
| 20260509125825 | 22 | 217 | 0.0 | 0.0 | 0.00 | 0.13 | 0.13 | 99 | 1014.6 |
| 20260509125322 | 22 | 217 | 0.0 | 0.0 | 0.00 | 0.13 | 0.13 | 99 | 1014.4 |
| 20260509124818 | 22 | 217 | 0.0 | 0.0 | 0.00 | 0.13 | 0.13 | 99 | 1014.3 |
| 20260509124315 | 22 | 217 | 0.0 | 0.0 | 0.00 | 0.13 | 0.13 | 99 | 1014.3 |
| 20260509123813 | 22 | 217 | 0.0 | 0.0 | 0.00 | 0.13 | 0.13 | 99 | 1014.3 |
| 20260509123310 | 22 | 217 | 0.0 | 0.0 | 0.00 | 0.13 | 0.13 | 99 | 1014.0 |
| 20260509122806 | 22 | 217 | 0.0 | 0.0 | 0.00 | 0.13 | 0.13 | 99 | 1014.0 |
| 20260509122306 | 22 | 217 | 0.0 | 0.0 | 0.00 | 0.13 | 0.13 | 99 | 1013.8 |
| 20260509121800 | 22 | 217 | 0.0 | 0.0 | 0.00 | 0.13 | 0.13 | 99 | 1014.1 |
| 20260509121257 | 22 | 217 | 0.0 | 0.0 | 0.00 | 0.13 | 0.13 | 99 | 1013.6 |
| 20260509120755 | 22 | 217 | 0.0 | 0.0 | 0.00 | 0.13 | 0.13 | 99 | 1013.9 |
| 20260509120252 | 22 | 217 | 0.0 | 0.0 | 0.00 | 0.13 | 0.13 | 99 | 1013.9 |
| 20260509115751 | 22 | 217 | 0.0 | 0.0 | 0.00 | 0.13 | 0.13 | 99 | 1014.2 |
| 20260509115247 | 22 | 217 | 0.0 | 0.0 | 0.00 | 0.13 | 0.13 | 99 | 1014.3 |
| 20260509114745 | 22 | 217 | 0.0 | 0.0 | 0.00 | 0.13 | 0.13 | 99 | 1014.3 |
| 20260509114244 | 22 | 216 | 0.0 | 0.0 | 0.00 | 0.13 | 0.13 | 99 | 1014.3 |
| 20260509113742 | 22 | 216 | 0.0 | 0.0 | 0.00 | 0.13 | 0.13 | 99 | 1014.4 |
| 20260509113239 | 22 | 216 | 1.6 | 1.6 | 0.00 | 0.13 | 0.13 | 99 | 1014.3 |
| 20260509112736 | 22 | 216 | 1.6 | 1.6 | 0.00 | 0.13 | 0.13 | 99 | 1014.9 |
| 20260509112233 | 22 | 216 | 0.0 | 0.0 | 0.00 | 0.13 | 0.13 | 99 | 1014.8 |
| 20260509111730 | 22 | 217 | 0.0 | 0.0 | 0.00 | 0.13 | 0.13 | 99 | 1014.9 |
| 20260509111226 | 22 | 217 | 0.0 | 0.0 | 0.00 | 0.13 | 0.13 | 99 | 1015.2 |
| 20260509110724 | 22 | 217 | 0.0 | 0.0 | 0.00 | 0.13 | 0.13 | 99 | 1015.0 |
| 20260509110220 | 22 | 217 | 0.0 | 0.0 | 0.00 | 0.13 | 0.13 | 99 | 1015.0 |
| 20260509105719 | 22 | 216 | 0.0 | 0.0 | 0.00 | 0.13 | 0.13 | 99 | 1015.2 |
| 20260509105216 | 22 | 217 | 0.0 | 0.0 | 0.61 | 0.13 | 0.13 | 99 | 1015.4 |
| 20260509104713 | 22 | 216 | 0.0 | 0.0 | 0.61 | 0.13 | 0.13 | 99 | 1015.3 |
| 20260509104210 | 22 | 216 | 0.0 | 0.0 | 0.00 | 0.03 | 0.03 | 99 | 1015.1 |
| 20260509103708 | 22 | 216 | 0.0 | 0.0 | 0.00 | 0.03 | 0.03 | 99 | 1015.1 |
| 20260509103205 | 22 | 216 | 0.0 | 0.0 | 0.00 | 0.03 | 0.03 | 99 | 1014.9 |
| 20260509102703 | 22 | 216 | 0.0 | 0.0 | 0.00 | 0.03 | 0.03 | 99 | 1015.1 |
| 20260509102200 | 22 | 216 | 0.0 | 0.0 | 0.00 | 0.03 | 0.03 | 99 | 1015.2 |
| 20260509101656 | 22 | 216 | 0.0 | 0.0 | 0.00 | 0.03 | 0.03 | 99 | 1015.0 |
| 20260509101153 | 22 | 215 | 0.0 | 0.0 | 0.00 | 0.03 | 0.03 | 99 | 1014.8 |
| 20260509100650 | 22 | 216 | 0.0 | 0.0 | 0.00 | 0.03 | 0.03 | 99 | 1014.6 |
| 20260509100147 | 22 | 216 | 0.0 | 0.0 | 0.00 | 0.03 | 0.03 | 99 | 1014.3 |
| 20260509095644 | 22 | 216 | 0.0 | 0.0 | 0.00 | 0.03 | 0.03 | 99 | 1014.1 |
| 20260509095141 | 22 | 216 | 0.0 | 0.0 | 0.00 | 0.03 | 0.03 | 99 | 1013.6 |
| 20260509094637 | 22 | 215 | 1.6 | 1.6 | 0.00 | 0.03 | 0.03 | 99 | 1013.8 |
| 20260509094135 | 22 | 216 | 0.0 | 0.0 | 0.00 | 0.03 | 0.03 | 99 | 1013.8 |
| 20260509093633 | 22 | 216 | 0.0 | 0.0 | 0.00 | 0.03 | 0.03 | 99 | 1013.6 |
| 20260509093130 | 22 | 216 | 0.0 | 0.0 | 0.00 | 0.03 | 0.03 | 99 | 1013.6 |
| 20260509092628 | 22 | 216 | 0.0 | 0.0 | 0.00 | 0.03 | 0.03 | 99 | 1013.6 |
| 20260509092126 | 22 | 215 | 0.0 | 0.0 | 0.00 | 0.03 | 0.03 | 99 | 1013.8 |
| 20260509091624 | 22 | 216 | 0.0 | 0.0 | 0.00 | 0.03 | 0.03 | 99 | 1013.7 |
| 20260509091120 | 22 | 216 | 0.0 | 0.0 | 0.00 | 0.03 | 0.03 | 99 | 1013.7 |
| 20260509090617 | 22 | 216 | 0.0 | 0.0 | 0.00 | 0.03 | 0.03 | 99 | 1013.5 |
| 20260509090115 | 22 | 216 | 0.0 | 0.0 | 0.18 | 0.03 | 0.03 | 99 | 1013.7 |
| 20260509085612 | 22 | 216 | 0.0 | 0.0 | 0.18 | 0.03 | 0.03 | 99 | 1013.5 |
| 20260509085108 | 22 | 216 | 0.0 | 0.0 | 0.00 | 0.00 | 0.00 | 99 | 1013.7 |
| 20260509084605 | 22 | 216 | 0.0 | 0.0 | 0.00 | 0.00 | 0.00 | 99 | 1013.7 |
| 20260509084102 | 22 | 216 | 0.0 | 0.0 | 0.00 | 0.00 | 0.00 | 99 | 1013.7 |
| 20260509083559 | 22 | 216 | 0.0 | 0.0 | 0.00 | 0.00 | 0.00 | 99 | 1013.7 |
| 20260509083056 | 22 | 216 | 0.0 | 0.0 | 0.00 | 0.00 | 0.00 | 99 | 1013.8 |
| 20260509082553 | 22 | 214 | 0.0 | 0.0 | 0.00 | 0.00 | 0.00 | 99 | 1014.0 |
| 20260509082050 | 22 | 214 | 0.0 | 0.0 | 0.00 | 0.00 | 0.00 | 99 | 1013.9 |
| 20260509081547 | 22 | 214 | 0.0 | 0.0 | 0.00 | 0.00 | 0.00 | 99 | 1014.1 |
| 20260509081044 | 22 | 214 | 0.0 | 1.6 | 0.00 | 0.00 | 0.00 | 99 | 1014.0 |
| 20260509080542 | 22 | 214 | 0.0 | 0.0 | 0.00 | 0.00 | 0.00 | 98 | 1014.2 |
| 20260509080040 | 22 | 213 | 0.0 | 0.0 | 0.00 | 0.00 | 0.00 | 98 | 1014.1 |
| 20260509075537 | 22 | 213 | 0.0 | 0.0 | 0.00 | 0.00 | 0.00 | 98 | 1013.9 |
| 20260509075035 | 22 | 213 | 0.0 | 0.0 | 0.00 | 0.00 | 0.00 | 98 | 1013.7 |
| 20260509074532 | 22 | 213 | 0.0 | 0.0 | 0.00 | 0.00 | 0.00 | 98 | 1013.9 |
| 20260509074028 | 22 | 213 | 0.0 | 0.0 | 0.00 | 0.00 | 0.00 | 97 | 1013.9 |
| 20260509073525 | 22 | 213 | 0.0 | 0.0 | 0.00 | 0.00 | 0.00 | 97 | 1013.7 |
| 20260509073021 | 22 | 213 | 0.0 | 0.0 | 0.00 | 0.00 | 0.00 | 97 | 1013.9 |
| 20260509072518 | 22 | 213 | 0.0 | 0.0 | 0.00 | 0.00 | 0.00 | 97 | 1014.1 |
| 20260509072015 | 22 | 213 | 0.0 | 0.0 | 0.00 | 0.00 | 0.00 | 97 | 1014.2 |
| 20260509071511 | 22 | 213 | 0.0 | 0.0 | 0.00 | 0.00 | 0.00 | 97 | 1014.2 |
| 20260509071009 | 22 | 213 | 0.0 | 0.0 | 0.00 | 0.00 | 0.00 | 97 | 1014.1 |
| 20260509070506 | 22 | 213 | 0.0 | 0.0 | 0.00 | 0.00 | 0.00 | 97 | 1013.9 |
| 20260509070002 | 22 | 213 | 0.0 | 0.0 | 0.00 | 0.00 | 0.00 | 97 | 1014.4 |
| 20260509065457 | 22 | 212 | 0.0 | 1.6 | 0.00 | 0.00 | 0.00 | 97 | 1014.2 |
| 20260509064954 | 22 | 212 | 0.0 | 0.0 | 0.00 | 0.00 | 0.00 | 96 | 1014.1 |
| 20260509064452 | 22 | 212 | 0.0 | 0.0 | 0.00 | 0.00 | 0.00 | 96 | 1014.0 |
| 20260509063950 | 22 | 212 | 0.0 | 0.0 | 0.00 | 0.00 | 0.00 | 96 | 1014.0 |
| 20260509063445 | 22 | 212 | 0.0 | 0.0 | 0.00 | 0.00 | 0.00 | 96 | 1013.9 |
| 20260509062942 | 22 | 212 | 0.0 | 0.0 | 0.00 | 0.00 | 0.00 | 96 | 1014.0 |
| 20260509062439 | 22 | 210 | 1.6 | 1.6 | 0.00 | 0.00 | 0.00 | 96 | 1014.0 |
| 20260509061937 | 22 | 203 | 1.6 | 1.6 | 0.00 | 0.00 | 0.00 | 96 | 1014.0 |
| 20260509061434 | 22 | 223 | 1.6 | 1.6 | 0.00 | 0.00 | 0.00 | 96 | 1013.9 |
| 20260509060931 | 22 | 211 | 0.0 | 0.0 | 0.00 | 0.00 | 0.00 | 97 | 1013.8 |
| 20260509060429 | 22 | 190 | 1.6 | 1.6 | 0.00 | 0.00 | 0.00 | 97 | 1013.7 |
| 20260509055923 | 22 | 210 | 3.2 | 4.8 | 0.00 | 0.00 | 0.00 | 97 | 1013.8 |
| 20260509055419 | 22 | 210 | 0.0 | 0.0 | 0.00 | 0.00 | 0.00 | 97 | 1013.4 |
| 20260509054916 | 22 | 197 | 1.6 | 3.2 | 0.00 | 0.00 | 0.00 | 97 | 1013.3 |
| 20260509054413 | 22 | 210 | 3.2 | 3.2 | 0.00 | 0.00 | 0.00 | 97 | 1013.5 |
| 20260509053911 | 22 | 207 | 3.2 | 3.2 | 0.00 | 0.00 | 0.00 | 97 | 1013.6 |
| 20260509053409 | 22 | 222 | 0.0 | 1.6 | 0.00 | 0.00 | 0.00 | 97 | 1013.7 |
| 20260509052906 | 22 | 207 | 0.0 | 1.6 | 0.00 | 0.00 | 0.00 | 97 | 1013.6 |
| 20260509052403 | 22 | 169 | 4.8 | 4.8 | 0.00 | 0.00 | 0.00 | 97 | 1013.1 |
| 20260509051901 | 22 | 209 | 6.4 | 9.7 | 0.00 | 0.00 | 0.00 | 97 | 1013.1 |
| 20260509051359 | 22 | 206 | 6.4 | 11.3 | 0.00 | 0.00 | 0.00 | 97 | 1012.8 |
| 20260509050855 | 22 | 220 | 1.6 | 3.2 | 0.00 | 0.00 | 0.00 | 97 | 1012.7 |
| 20260509050352 | 22 | 204 | 4.8 | 4.8 | 0.00 | 0.00 | 0.00 | 96 | 1012.9 |
| 20260509045849 | 22 | 211 | 1.6 | 3.2 | 0.00 | 0.00 | 0.00 | 96 | 1012.8 |
| 20260509045346 | 22 | 197 | 3.2 | 3.2 | 0.00 | 0.00 | 0.00 | 96 | 1013.0 |
| 20260509044843 | 22 | 155 | 3.2 | 3.2 | 0.00 | 0.00 | 0.00 | 96 | 1012.9 |
| 20260509044341 | 22 | 194 | 3.2 | 3.2 | 0.00 | 0.00 | 0.00 | 95 | 1013.1 |
| 20260509043837 | 22 | 208 | 3.2 | 3.2 | 0.00 | 0.00 | 0.00 | 95 | 1013.0 |
| 20260509043333 | 22 | 199 | 1.6 | 1.6 | 0.00 | 0.00 | 0.00 | 95 | 1013.1 |
| 20260509042829 | 22 | 208 | 4.8 | 8.0 | 0.00 | 0.00 | 0.00 | 95 | 1013.2 |
| 20260509042326 | 22 | 181 | 3.2 | 4.8 | 0.00 | 0.00 | 0.00 | 94 | 1012.8 |
| 20260509041822 | 22 | 165 | 4.8 | 4.8 | 0.00 | 0.00 | 0.00 | 94 | 1013.0 |
| 20260509041319 | 22 | 220 | 1.6 | 3.2 | 0.00 | 0.00 | 0.00 | 94 | 1013.3 |
| 20260509040818 | 22 | 197 | 0.0 | 1.6 | 0.00 | 0.00 | 0.00 | 94 | 1013.0 |
| 20260509040315 | 22 | 160 | 4.8 | 8.0 | 0.00 | 0.00 | 0.00 | 94 | 1013.2 |
| 20260509035812 | 22 | 201 | 4.8 | 4.8 | 0.00 | 0.00 | 0.00 | 94 | 1013.0 |
| 20260509035309 | 22 | 149 | 4.8 | 4.8 | 0.00 | 0.00 | 0.00 | 94 | 1013.1 |
| 20260509034805 | 22 | 201 | 3.2 | 3.2 | 0.00 | 0.00 | 0.00 | 93 | 1013.4 |
| 20260509034303 | 22 | 129 | 4.8 | 9.7 | 0.00 | 0.00 | 0.00 | 94 | 1013.2 |
| 20260509033759 | 22 | 196 | 1.6 | 1.6 | 0.00 | 0.00 | 0.00 | 93 | 1013.3 |
| 20260509033257 | 22 | 206 | 1.6 | 1.6 | 0.00 | 0.00 | 0.00 | 93 | 1013.3 |
| 20260509032754 | 22 | 196 | 0.0 | 1.6 | 0.00 | 0.00 | 0.00 | 93 | 1013.1 |
| 20260509032250 | 22 | 196 | 0.0 | 0.0 | 0.00 | 0.00 | 0.00 | 93 | 1013.2 |
| 20260509031748 | 22 | 196 | 0.0 | 0.0 | 0.00 | 0.00 | 0.00 | 92 | 1013.4 |
| 20260509031245 | 22 | 196 | 0.0 | 0.0 | 0.00 | 0.00 | 0.00 | 92 | 1013.4 |
| 20260509030743 | 22 | 195 | 0.0 | 1.6 | 0.00 | 0.00 | 0.00 | 92 | 1013.5 |
| 20260509030241 | 23 | 196 | 0.0 | 1.6 | 0.00 | 0.00 | 0.00 | 91 | 1013.0 |
| 20260509025737 | 23 | 196 | 0.0 | 0.0 | 0.00 | 0.00 | 0.00 | 91 | 1013.1 |
| 20260509025233 | 23 | 195 | 0.0 | 1.6 | 0.00 | 0.00 | 0.00 | 91 | 1013.1 |
| 20260509024728 | 23 | 199 | 4.8 | 4.8 | 0.00 | 0.00 | 0.00 | 91 | 1012.7 |
| 20260509024224 | 23 | 171 | 1.6 | 3.2 | 0.00 | 0.00 | 0.00 | 91 | 1012.7 |
| 20260509023722 | 23 | 191 | 1.6 | 1.6 | 0.00 | 0.00 | 0.00 | 90 | 1012.4 |
| 20260509023219 | 23 | 214 | 1.6 | 1.6 | 0.00 | 0.00 | 0.00 | 90 | 1012.7 |
| 20260509022715 | 23 | 215 | 1.6 | 1.6 | 0.00 | 0.00 | 0.00 | 90 | 1012.6 |
| 20260509022213 | 23 | 215 | 1.6 | 1.6 | 0.00 | 0.00 | 0.00 | 89 | 1012.6 |
| 20260509021710 | 23 | 215 | 3.2 | 3.2 | 0.00 | 0.00 | 0.00 | 89 | 1012.6 |
| 20260509021207 | 23 | 216 | 1.6 | 1.6 | 0.00 | 0.00 | 0.00 | 88 | 1012.4 |
| 20260509020705 | 23 | 217 | 3.2 | 3.2 | 0.00 | 0.00 | 0.00 | 88 | 1012.4 |
| 20260509020202 | 24 | 218 | 1.6 | 1.6 | 0.00 | 0.00 | 0.00 | 87 | 1012.2 |
| 20260509015700 | 24 | 216 | 1.6 | 1.6 | 0.00 | 0.00 | 0.00 | 87 | 1012.3 |
| 20260509015158 | 24 | 177 | 0.0 | 1.6 | 0.00 | 0.00 | 0.00 | 86 | 1012.0 |
| 20260509014654 | 24 | 175 | 3.2 | 3.2 | 0.00 | 0.00 | 0.00 | 86 | 1011.9 |
| 20260509014150 | 24 | 201 | 1.6 | 3.2 | 0.00 | 0.00 | 0.00 | 86 | 1012.1 |
| 20260509013648 | 24 | 195 | 3.2 | 3.2 | 0.00 | 0.00 | 0.00 | 86 | 1012.1 |
| 20260509013143 | 25 | 178 | 1.6 | 1.6 | 0.00 | 0.00 | 0.00 | 86 | 1011.9 |
| 20260509012640 | 25 | 198 | 4.8 | 8.0 | 0.00 | 0.00 | 0.00 | 85 | 1012.1 |
| 20260509012137 | 25 | 197 | 3.2 | 3.2 | 0.00 | 0.00 | 0.00 | 85 | 1011.8 |
| 20260509011635 | 25 | 197 | 1.6 | 3.2 | 0.00 | 0.00 | 0.00 | 85 | 1011.9 |
| 20260509011132 | 25 | 158 | 6.4 | 8.0 | 0.00 | 0.00 | 0.00 | 85 | 1011.8 |
| 20260509010630 | 25 | 178 | 3.2 | 4.8 | 0.00 | 0.00 | 0.00 | 85 | 1011.9 |
| 20260509010126 | 25 | 186 | 6.4 | 8.0 | 0.00 | 0.00 | 0.00 | 84 | 1011.8 |
| 20260509005624 | 25 | 185 | 1.6 | 3.2 | 0.00 | 0.00 | 0.00 | 84 | 1011.9 |
| 20260509005120 | 25 | 193 | 3.2 | 3.2 | 0.00 | 0.00 | 0.00 | 84 | 1012.2 |
| 20260509004616 | 25 | 193 | 3.2 | 3.2 | 0.00 | 0.00 | 0.00 | 83 | 1012.0 |
| 20260509004113 | 25 | 210 | 0.0 | 0.0 | 0.00 | 0.00 | 0.00 | 83 | 1011.8 |
| 20260509003611 | 25 | 210 | 0.0 | 0.0 | 0.00 | 0.00 | 0.00 | 82 | 1011.7 |
| 20260509003108 | 25 | 209 | 1.6 | 1.6 | 0.00 | 0.00 | 0.00 | 82 | 1011.8 |
| 20260509002606 | 25 | 166 | 3.2 | 3.2 | 0.00 | 0.00 | 0.00 | 82 | 1011.7 |
| 20260509002103 | 25 | 164 | 3.2 | 3.2 | 0.00 | 0.00 | 0.00 | 82 | 1012.0 |
| 20260509001601 | 25 | 186 | 1.6 | 3.2 | 0.00 | 0.00 | 0.00 | 82 | 1012.0 |
| 20260509001056 | 25 | 183 | 3.2 | 3.2 | 0.00 | 0.00 | 0.00 | 82 | 1011.7 |
| 20260509000555 | 25 | 139 | 3.2 | 4.8 | 0.00 | 0.00 | 0.00 | 81 | 1012.1 |
| 20260509000050 | 25 | 214 | 1.6 | 3.2 | 0.00 | 0.00 | 0.00 | 81 | 1011.9 |
| 20260508235548 | 25 | 213 | 4.8 | 4.8 | 0.00 | 0.00 | 0.00 | 81 | 1012.0 |
| 20260508235044 | 25 | 159 | 4.8 | 8.0 | 0.00 | 0.00 | 0.00 | 81 | 1011.9 |
| 20260508234542 | 25 | 192 | 1.6 | 3.2 | 0.00 | 0.00 | 0.00 | 80 | 1011.8 |
| 20260508234038 | 25 | 184 | 1.6 | 1.6 | 0.00 | 0.00 | 0.00 | 80 | 1011.9 |
| 20260508233538 | 25 | 209 | 3.2 | 3.2 | 0.00 | 0.00 | 0.00 | 80 | 1012.0 |
| 20260508233035 | 26 | 197 | 4.8 | 8.0 | 0.00 | 0.00 | 0.00 | 79 | 1012.0 |
| 20260508232531 | 26 | 180 | 6.4 | 8.0 | 0.00 | 0.00 | 0.00 | 79 | 1011.9 |
| 20260508232029 | 26 | 218 | 3.2 | 3.2 | 0.00 | 0.00 | 0.00 | 79 | 1011.7 |
| 20260508231526 | 26 | 188 | 1.6 | 3.2 | 0.00 | 0.00 | 0.00 | 79 | 1011.8 |
| 20260508231023 | 26 | 197 | 6.4 | 8.0 | 0.00 | 0.00 | 0.00 | 79 | 1011.7 |
| 20260508230520 | 26 | 167 | 4.8 | 4.8 | 0.00 | 0.00 | 0.00 | 79 | 1011.9 |
| 20260508230017 | 26 | 192 | 4.8 | 4.8 | 0.00 | 0.00 | 0.00 | 79 | 1011.7 |
| 20260508225514 | 26 | 215 | 6.4 | 8.0 | 0.00 | 0.00 | 0.00 | 79 | 1011.8 |
| 20260508225010 | 26 | 222 | 6.4 | 9.7 | 0.00 | 0.00 | 0.00 | 78 | 1012.0 |
| 20260508224508 | 26 | 209 | 3.2 | 3.2 | 0.00 | 0.00 | 0.00 | 79 | 1011.8 |
| 20260508224005 | 26 | 190 | 9.7 | 12.9 | 0.00 | 0.00 | 0.00 | 78 | 1011.6 |
| 20260508223503 | 26 | 169 | 4.8 | 4.8 | 0.00 | 0.00 | 0.00 | 78 | 1011.9 |
| 20260508223000 | 26 | 169 | 6.4 | 9.7 | 0.00 | 0.00 | 0.00 | 78 | 1011.9 |
| 20260508222458 | 26 | 207 | 1.6 | 3.2 | 0.00 | 0.00 | 0.00 | 79 | 1011.8 |
| 20260508221954 | 26 | 215 | 6.4 | 8.0 | 0.00 | 0.00 | 0.00 | 79 | 1012.1 |
| 20260508221450 | 26 | 174 | 1.6 | 3.2 | 0.00 | 0.00 | 0.00 | 79 | 1011.8 |
| 20260508220946 | 26 | 172 | 6.4 | 8.0 | 0.00 | 0.00 | 0.00 | 78 | 1011.6 |
| 20260508220443 | 26 | 187 | 4.8 | 4.8 | 0.00 | 0.00 | 0.00 | 78 | 1011.9 |
| 20260508215939 | 26 | 190 | 4.8 | 4.8 | 0.00 | 0.00 | 0.00 | 78 | 1012.0 |
| 20260508215436 | 26 | 153 | 4.8 | 9.7 | 0.00 | 0.00 | 0.00 | 78 | 1011.9 |
| 20260508214933 | 26 | 170 | 8.0 | 12.9 | 0.00 | 0.00 | 0.00 | 77 | 1012.2 |
| 20260508214431 | 26 | 208 | 4.8 | 8.0 | 0.00 | 0.00 | 0.00 | 77 | 1012.2 |
| 20260508213926 | 26 | 173 | 6.4 | 9.7 | 0.00 | 0.00 | 0.00 | 77 | 1012.1 |
| 20260508213424 | 26 | 196 | 4.8 | 8.0 | 0.00 | 0.00 | 0.00 | 77 | 1012.2 |
| 20260508212919 | 26 | 205 | 6.4 | 8.0 | 0.00 | 0.00 | 0.00 | 77 | 1012.2 |
| 20260508212416 | 26 | 146 | 4.8 | 8.0 | 0.00 | 0.00 | 0.00 | 77 | 1012.1 |
| 20260508211912 | 26 | 175 | 1.6 | 3.2 | 0.00 | 0.00 | 0.00 | 77 | 1012.3 |
| 20260508211408 | 26 | 183 | 3.2 | 3.2 | 0.00 | 0.00 | 0.00 | 77 | 1012.4 |
| 20260508210906 | 26 | 175 | 3.2 | 4.8 | 0.00 | 0.00 | 0.00 | 77 | 1012.8 |
| 20260508210402 | 26 | 198 | 3.2 | 3.2 | 0.00 | 0.00 | 0.00 | 77 | 1012.9 |
| 20260508205858 | 26 | 203 | 3.2 | 3.2 | 0.00 | 0.00 | 0.00 | 76 | 1012.9 |
| 20260508205355 | 26 | 199 | 3.2 | 4.8 | 0.00 | 0.00 | 0.00 | 76 | 1012.8 |
| 20260508204851 | 26 | 203 | 3.2 | 3.2 | 0.00 | 0.00 | 0.00 | 77 | 1013.0 |
| 20260508204348 | 26 | 172 | 6.4 | 8.0 | 0.00 | 0.00 | 0.00 | 76 | 1013.1 |
| 20260508203844 | 26 | 172 | 4.8 | 4.8 | 0.00 | 0.00 | 0.00 | 76 | 1013.1 |
| 20260508203340 | 26 | 206 | 3.2 | 3.2 | 0.00 | 0.00 | 0.00 | 76 | 1013.1 |
| 20260508202836 | 26 | 216 | 1.6 | 1.6 | 0.00 | 0.00 | 0.00 | 75 | 1013.2 |
| 20260508202334 | 26 | 174 | 1.6 | 1.6 | 0.00 | 0.00 | 0.00 | 76 | 1013.2 |
| 20260508201831 | 26 | 177 | 3.2 | 3.2 | 0.00 | 0.00 | 0.00 | 75 | 1013.3 |
| 20260508201328 | 26 | 180 | 4.8 | 4.8 | 0.00 | 0.00 | 0.00 | 75 | 1013.3 |
| 20260508200824 | 26 | 177 | 3.2 | 4.8 | 0.00 | 0.00 | 0.00 | 74 | 1013.4 |
| 20260508200321 | 26 | 176 | 0.0 | 1.6 | 0.00 | 0.00 | 0.00 | 76 | 1013.5 |
| 20260508195817 | 26 | 175 | 3.2 | 3.2 | 0.00 | 0.00 | 0.00 | 74 | 1013.4 |
| 20260508195314 | 26 | 230 | 1.6 | 1.6 | 0.00 | 0.00 | 0.00 | 75 | 1013.6 |
| 20260508194810 | 26 | 199 | 1.6 | 3.2 | 0.00 | 0.00 | 0.00 | 75 | 1013.5 |
| 20260508194307 | 26 | 199 | 4.8 | 8.0 | 0.00 | 0.00 | 0.00 | 73 | 1013.6 |
| 20260508193804 | 26 | 199 | 3.2 | 3.2 | 0.00 | 0.00 | 0.00 | 74 | 1013.9 |
| 20260508193301 | 26 | 199 | 0.0 | 0.0 | 0.00 | 0.00 | 0.00 | 75 | 1013.6 |
| 20260508192757 | 25 | 197 | 1.6 | 4.8 | 0.00 | 0.00 | 0.00 | 75 | 1013.9 |
| 20260508192254 | 25 | 195 | 1.6 | 1.6 | 0.00 | 0.00 | 0.00 | 77 | 1013.9 |
| 20260508191751 | 25 | 201 | 6.4 | 8.0 | 0.00 | 0.00 | 0.00 | 76 | 1014.1 |
| 20260508191249 | 25 | 186 | 4.8 | 8.0 | 0.00 | 0.00 | 0.00 | 76 | 1014.2 |
| 20260508190746 | 25 | 174 | 3.2 | 3.2 | 0.00 | 0.00 | 0.00 | 75 | 1014.1 |
| 20260508190242 | 25 | 147 | 4.8 | 8.0 | 0.00 | 0.00 | 0.00 | 75 | 1014.0 |
| 20260508185738 | 26 | 201 | 3.2 | 4.8 | 0.00 | 0.00 | 0.00 | 73 | 1014.2 |
| 20260508185236 | 26 | 201 | 3.2 | 4.8 | 0.00 | 0.00 | 0.00 | 74 | 1014.5 |
| 20260508184733 | 25 | 216 | 0.0 | 0.0 | 0.00 | 0.00 | 0.00 | 76 | 1014.2 |
| 20260508184230 | 26 | 235 | 0.0 | 1.6 | 0.00 | 0.00 | 0.00 | 72 | 1014.1 |
| 20260508183727 | 25 | 234 | 0.0 | 1.6 | 0.00 | 0.00 | 0.00 | 74 | 1014.3 |
| 20260508183223 | 26 | 235 | 1.6 | 1.6 | 0.00 | 0.00 | 0.00 | 73 | 1014.3 |